This is the latest recevied weather packets stored in our database for station/object KJ7HSW. If no packets are shown the sender has not sent any weather packets the latest 10 day(s).
| Time | Temp. | Humidity | Pressure | Rain* | Wind** | Luminosity | Snow |
|---|---|---|---|---|---|---|---|
| 1778100586 | 12.22° C | 90% | 1019.9 hPa | 0 mm | - | 82 W/m² | - |
| 1778100285 | 12.22° C | 91% | 1019.7 hPa | 0 mm | - | 93 W/m² | - |
| 1778099982 | 12.22° C | 90% | 1019.9 hPa | 0 mm | - | 78 W/m² | - |
| 1778099679 | 12.22° C | 90% | 1019.8 hPa | 0 mm | - | 69 W/m² | - |
| 1778099376 | 12.22° C | 90% | 1019.9 hPa | 0 mm | - | 76 W/m² | - |
| 1778099073 | 12.22° C | 90% | 1019.7 hPa | 0 mm | - | 80 W/m² | - |
| 1778098769 | 12.22° C | 90% | 1019.7 hPa | 0 mm | - | 67 W/m² | - |
| 1778098467 | 12.22° C | 90% | 1019.6 hPa | 0 mm | - | 75 W/m² | - |
| 1778098163 | 12.22° C | 90% | 1019.7 hPa | 0 mm | - | 72 W/m² | - |
| 1778097860 | 12.22° C | 90% | 1019.7 hPa | 0 mm | - | 86 W/m² | - |
| 1778097556 | 12.22° C | 91% | 1019.6 hPa | 0 mm | - | 74 W/m² | - |
| 1778097253 | 12.22° C | 90% | 1019.6 hPa | 0 mm | - | 78 W/m² | - |
| 1778096950 | 12.22° C | 90% | 1019.7 hPa | 0 mm | - | 63 W/m² | - |
| 1778096647 | 12.22° C | 89% | 1019.6 hPa | 0 mm | - | 83 W/m² | - |
| 1778096344 | 12.22° C | 89% | 1019.6 hPa | 0 mm | - | 102 W/m² | - |
| 1778096041 | 12.22° C | 88% | 1019.5 hPa | 0 mm | - | 102 W/m² | - |
| 1778095737 | 12.78° C | 89% | 1019.7 hPa | 0 mm | - | 117 W/m² | - |
| 1778095434 | 12.78° C | 88% | 1019.5 hPa | 0 mm | - | 142 W/m² | - |
| 1778095131 | 12.78° C | 88% | 1019.5 hPa | 0 mm | - | 151 W/m² | - |
| 1778094827 | 12.78° C | 88% | 1019.4 hPa | 0 mm | - | 186 W/m² | - |
| 1778094524 | 12.78° C | 88% | 1019.3 hPa | 0 mm | - | 193 W/m² | - |
| 1778094220 | 12.78° C | 88% | 1019.5 hPa | 0 mm | - | 187 W/m² | - |
| 1778093918 | 12.78° C | 88% | 1019.6 hPa | 0 mm | - | 149 W/m² | - |
| 1778093615 | 12.78° C | 88% | 1019.5 hPa | 0 mm | - | 187 W/m² | - |
| 1778093312 | 12.78° C | 88% | 1019.4 hPa | 0 mm | - | 205 W/m² | - |
* Rain latest hour (hover to see other rain measurements)
** Current wind speed in m/s (hover to see current wind gust speed)